| time (UTC) | temp F | wind direction | speed knots | gust knots | rain 1hr in | rain 24hr in | rain mn in | humidity % | barometer mb |
| 20260510143656 | 52 | 301 | 4.3 | 6.1 | 0.00 | 0.00 | 0.00 | 34 | 1015.8 |
| 20260510143153 | 51 | 304 | 0.9 | 5.2 | 0.00 | 0.00 | 0.00 | 33 | 1015.8 |
| 20260510142650 | 52 | 21 | 0.9 | 3.5 | 0.00 | 0.00 | 0.00 | 37 | 1015.8 |
| 20260510142146 | 51 | 296 | 1.7 | 2.6 | 0.00 | 0.00 | 0.00 | 36 | 1015.4 |
| 20260510141643 | 52 | 326 | 1.7 | 3.5 | 0.00 | 0.00 | 0.00 | 32 | 1015.4 |
| 20260510141142 | 51 | 284 | 3.5 | 7.0 | 0.00 | 0.00 | 0.00 | 36 | 1015.4 |
| 20260510140637 | 51 | 30 | 2.6 | 3.5 | 0.00 | 0.00 | 0.00 | 31 | 1015.4 |
| 20260510140137 | 51 | 266 | 0.0 | 2.6 | 0.00 | 0.00 | 0.00 | 34 | 1015.4 |
| 20260510135632 | 50 | 342 | 0.9 | 6.1 | 0.00 | 0.00 | 0.00 | 39 | 1015.4 |
| 20260510135129 | 50 | 21 | 3.5 | 5.2 | 0.00 | 0.00 | 0.00 | 37 | 1015.0 |
| 20260510134626 | 50 | 289 | 1.7 | 5.2 | 0.00 | 0.00 | 0.00 | 37 | 1015.0 |
| 20260510134123 | 50 | 304 | 0.0 | 3.5 | 0.00 | 0.00 | 0.00 | 40 | 1015.0 |
| 20260510133619 | 50 | 310 | 3.5 | 7.0 | 0.00 | 0.00 | 0.00 | 38 | 1015.0 |
| 20260510133114 | 50 | 317 | 0.0 | 5.2 | 0.00 | 0.00 | 0.00 | 37 | 1015.0 |
| 20260510132611 | 50 | 53 | 1.7 | 2.6 | 0.00 | 0.00 | 0.00 | 39 | 1015.0 |
| 20260510132109 | 51 | 318 | 0.9 | 3.5 | 0.00 | 0.00 | 0.00 | 42 | 1015.0 |
| 20260510131606 | 50 | 295 | 0.0 | 1.7 | 0.00 | 0.00 | 0.00 | 45 | 1014.7 |
| 20260510131103 | 50 | 310 | 3.5 | 5.2 | 0.00 | 0.00 | 0.00 | 44 | 1014.7 |
| 20260510130559 | 49 | 328 | 1.7 | 2.6 | 0.00 | 0.00 | 0.00 | 46 | 1014.7 |
| 20260510130058 | 49 | 5 | 0.0 | 2.6 | 0.00 | 0.00 | 0.00 | 45 | 1014.7 |
| 20260510125553 | 49 | 282 | 0.0 | 1.7 | 0.00 | 0.00 | 0.00 | 47 | 1014.7 |
| 20260510125050 | 49 | 285 | 2.6 | 3.5 | 0.00 | 0.00 | 0.00 | 49 | 1014.7 |
| 20260510124546 | 48 | 310 | 0.0 | 1.7 | 0.00 | 0.00 | 0.00 | 54 | 1014.7 |
| 20260510124043 | 47 | 332 | 0.9 | 3.5 | 0.00 | 0.00 | 0.00 | 50 | 1014.7 |
| 20260510123539 | 47 | 294 | 0.0 | 3.5 | 0.00 | 0.00 | 0.00 | 52 | 1014.3 |
| 20260510123035 | 47 | 0 | 2.6 | 6.1 | 0.00 | 0.00 | 0.00 | 55 | 1014.3 |
| 20260510122531 | 47 | 1 | 1.7 | 5.2 | 0.00 | 0.00 | 0.00 | 58 | 1014.3 |
| 20260510122027 | 47 | 293 | 0.0 | 2.6 | 0.00 | 0.00 | 0.00 | 61 | 1014.3 |
| 20260510121524 | 45 | 289 | 0.0 | 1.7 | 0.00 | 0.00 | 0.00 | 63 | 1014.3 |
| 20260510121022 | 46 | 357 | 1.7 | 5.2 | 0.00 | 0.00 | 0.00 | 61 | 1014.3 |
| 20260510120519 | 45 | 341 | 0.9 | 0.9 | 0.00 | 0.00 | 0.00 | 64 | 1014.3 |
| 20260510120015 | 46 | 286 | 1.7 | 1.7 | 0.00 | 0.00 | 0.00 | 65 | 1014.3 |
| 20260510115512 | 46 | 315 | 0.0 | 1.7 | 0.00 | 0.00 | 0.00 | 66 | 1014.3 |
| 20260510115008 | 45 | 293 | 0.0 | 0.9 | 0.00 | 0.00 | 0.00 | 70 | 1014.0 |
| 20260510114505 | 44 | 304 | 0.0 | 2.6 | 0.00 | 0.00 | 0.00 | 77 | 1014.0 |
| 20260510114000 | 43 | 299 | 0.0 | 0.0 | 0.00 | 0.00 | 0.00 | 80 | 1014.0 |
| 20260510113455 | 41 | 295 | 0.0 | 0.0 | 0.00 | 0.00 | 0.00 | 82 | 1014.0 |
| 20260510112953 | 41 | 280 | 0.0 | 0.0 | 0.00 | 0.00 | 0.00 | 84 | 1014.0 |
| 20260510112450 | 40 | 279 | 0.0 | 0.0 | 0.00 | 0.00 | 0.00 | 84 | 1013.7 |
| 20260510111946 | 39 | 280 | 0.0 | 0.0 | 0.00 | 0.00 | 0.00 | 84 | 1013.7 |
| 20260510111443 | 38 | 279 | 0.0 | 0.0 | 0.00 | 0.00 | 0.00 | 84 | 1013.7 |
| 20260510110939 | 37 | 279 | 0.0 | 0.0 | 0.00 | 0.00 | 0.00 | 85 | 1013.7 |
| 20260510110435 | 37 | 279 | 0.0 | 0.0 | 0.00 | 0.00 | 0.00 | 85 | 1013.7 |
| 20260510105931 | 37 | 279 | 0.0 | 0.0 | 0.00 | 0.00 | 0.00 | 85 | 1013.7 |
| 20260510105426 | 37 | 279 | 0.0 | 0.0 | 0.00 | 0.00 | 0.00 | 85 | 1013.3 |
| 20260510104922 | 36 | 279 | 0.0 | 0.0 | 0.00 | 0.00 | 0.00 | 85 | 1013.3 |
| 20260510104419 | 36 | 280 | 0.0 | 0.0 | 0.00 | 0.00 | 0.00 | 86 | 1013.0 |
| 20260510103915 | 35 | 281 | 0.0 | 0.0 | 0.00 | 0.00 | 0.00 | 85 | 1013.3 |
| 20260510103413 | 34 | 282 | 0.0 | 0.0 | 0.00 | 0.00 | 0.00 | 85 | 1013.3 |
| 20260510102908 | 34 | 282 | 0.0 | 0.0 | 0.00 | 0.00 | 0.00 | 85 | 1013.3 |
| 20260510102404 | 34 | 282 | 0.0 | 0.0 | 0.00 | 0.00 | 0.00 | 85 | 1013.3 |
| 20260510101901 | 34 | 282 | 0.0 | 0.0 | 0.00 | 0.00 | 0.00 | 85 | 1013.0 |
| 20260510101359 | 34 | 282 | 0.0 | 0.0 | 0.00 | 0.00 | 0.00 | 85 | 1013.0 |
| 20260510100856 | 35 | 281 | 0.0 | 0.0 | 0.00 | 0.00 | 0.00 | 85 | 1012.6 |
| 20260510100353 | 35 | 307 | 0.0 | 0.0 | 0.00 | 0.00 | 0.00 | 85 | 1012.6 |
| 20260510095850 | 35 | 308 | 0.0 | 0.0 | 0.00 | 0.00 | 0.00 | 85 | 1013.0 |
| 20260510095344 | 34 | 307 | 0.0 | 0.0 | 0.00 | 0.00 | 0.00 | 84 | 1012.6 |
| 20260510094839 | 34 | 307 | 0.0 | 0.0 | 0.00 | 0.00 | 0.00 | 84 | 1012.6 |
| 20260510094334 | 34 | 307 | 0.0 | 0.0 | 0.00 | 0.00 | 0.00 | 84 | 1012.3 |
| 20260510093830 | 34 | 307 | 0.0 | 0.0 | 0.00 | 0.00 | 0.00 | 84 | 1012.3 |
| 20260510093327 | 34 | 309 | 0.0 | 0.0 | 0.00 | 0.00 | 0.00 | 84 | 1012.3 |
| 20260510092823 | 34 | 310 | 0.0 | 0.0 | 0.00 | 0.00 | 0.00 | 84 | 1012.3 |
| 20260510092319 | 35 | 310 | 0.0 | 0.0 | 0.00 | 0.00 | 0.00 | 83 | 1012.0 |
| 20260510091815 | 35 | 310 | 0.0 | 0.0 | 0.00 | 0.00 | 0.00 | 83 | 1012.0 |
| 20260510091312 | 35 | 310 | 0.0 | 0.0 | 0.00 | 0.00 | 0.00 | 83 | 1012.0 |
| 20260510090809 | 35 | 310 | 0.0 | 0.0 | 0.00 | 0.00 | 0.00 | 83 | 1012.0 |
| 20260510090306 | 35 | 310 | 0.0 | 0.0 | 0.00 | 0.00 | 0.00 | 83 | 1012.0 |
| 20260510085801 | 35 | 310 | 0.0 | 0.0 | 0.00 | 0.00 | 0.00 | 82 | 1012.0 |
| 20260510085255 | 35 | 310 | 0.0 | 0.0 | 0.00 | 0.00 | 0.00 | 82 | 1011.6 |
| 20260510084751 | 35 | 310 | 0.0 | 0.0 | 0.00 | 0.00 | 0.00 | 82 | 1011.3 |
| 20260510084249 | 36 | 310 | 0.0 | 0.0 | 0.00 | 0.00 | 0.00 | 81 | 1011.0 |
| 20260510083745 | 36 | 310 | 0.0 | 0.0 | 0.00 | 0.00 | 0.00 | 81 | 1011.3 |
| 20260510083242 | 36 | 310 | 0.0 | 0.0 | 0.00 | 0.00 | 0.00 | 81 | 1011.0 |
| 20260510082738 | 36 | 310 | 0.0 | 0.0 | 0.00 | 0.00 | 0.00 | 80 | 1011.0 |
| 20260510082234 | 36 | 310 | 0.0 | 0.0 | 0.00 | 0.00 | 0.00 | 80 | 1011.0 |
| 20260510081734 | 37 | 310 | 0.0 | 0.0 | 0.00 | 0.00 | 0.00 | 80 | 1011.0 |
| 20260510081230 | 37 | 310 | 0.0 | 0.0 | 0.00 | 0.00 | 0.00 | 79 | 1011.0 |
| 20260510080725 | 37 | 310 | 0.0 | 0.0 | 0.00 | 0.00 | 0.00 | 79 | 1011.0 |
| 20260510080221 | 38 | 310 | 0.0 | 0.0 | 0.00 | 0.00 | 0.00 | 78 | 1010.6 |
| 20260510075718 | 38 | 310 | 0.0 | 0.0 | 0.00 | 0.00 | 0.00 | 78 | 1010.6 |
| 20260510075216 | 39 | 313 | 0.0 | 0.9 | 0.00 | 0.00 | 0.00 | 78 | 1010.2 |
| 20260510074713 | 38 | 324 | 0.0 | 0.9 | 0.00 | 0.00 | 0.00 | 78 | 1010.6 |
| 20260510074209 | 38 | 313 | 0.0 | 0.0 | 0.00 | 0.00 | 0.00 | 76 | 1010.6 |
| 20260510073706 | 39 | 312 | 0.0 | 0.0 | 0.00 | 0.00 | 0.00 | 74 | 1010.6 |
| 20260510073201 | 39 | 312 | 0.0 | 0.0 | 0.00 | 0.00 | 0.00 | 73 | 1010.6 |
| 20260510072657 | 40 | 312 | 0.0 | 0.0 | 0.00 | 0.00 | 0.00 | 72 | 1010.6 |
| 20260510072154 | 41 | 312 | 0.0 | 0.0 | 0.00 | 0.00 | 0.00 | 71 | 1010.6 |
| 20260510071650 | 41 | 312 | 0.0 | 0.0 | 0.00 | 0.00 | 0.00 | 71 | 1010.6 |
| 20260510071148 | 42 | 338 | 0.0 | 0.9 | 0.00 | 0.00 | 0.00 | 71 | 1010.2 |
| 20260510070645 | 42 | 27 | 0.9 | 1.7 | 0.00 | 0.00 | 0.00 | 70 | 1010.2 |
| 20260510070143 | 42 | 344 | 0.0 | 0.9 | 0.00 | 0.00 | 0.00 | 69 | 1010.2 |
| 20260510065643 | 43 | 26 | 0.0 | 0.9 | 0.00 | 0.00 | 0.00 | 68 | 1010.2 |
| 20260510065139 | 43 | 23 | 0.9 | 1.7 | 0.00 | 0.00 | 0.00 | 68 | 1009.8 |
| 20260510064636 | 43 | 340 | 0.9 | 0.9 | 0.00 | 0.00 | 0.00 | 68 | 1009.8 |
| 20260510064132 | 43 | 5 | 1.7 | 1.7 | 0.00 | 0.00 | 0.00 | 67 | 1009.8 |
| 20260510063629 | 43 | 25 | 0.0 | 1.7 | 0.00 | 0.00 | 0.00 | 67 | 1009.8 |
| 20260510063126 | 43 | 319 | 0.0 | 2.6 | 0.00 | 0.00 | 0.00 | 67 | 1009.8 |
| 20260510062622 | 43 | 63 | 1.7 | 3.5 | 0.00 | 0.00 | 0.00 | 67 | 1009.8 |
| 20260510062118 | 43 | 66 | 1.7 | 3.5 | 0.00 | 0.00 | 0.00 | 67 | 1009.8 |
| 20260510061614 | 43 | 41 | 1.7 | 2.6 | 0.00 | 0.00 | 0.00 | 67 | 1009.8 |
| 20260510061112 | 43 | 107 | 0.9 | 1.7 | 0.00 | 0.00 | 0.00 | 66 | 1009.8 |
| 20260510060607 | 44 | 48 | 0.9 | 0.9 | 0.00 | 0.00 | 0.00 | 66 | 1009.5 |
| 20260510060104 | 44 | 59 | 0.9 | 2.6 | 0.00 | 0.00 | 0.00 | 66 | 1009.5 |
| 20260510055600 | 44 | 64 | 3.5 | 7.0 | 0.00 | 0.00 | 0.00 | 62 | 1009.5 |
| 20260510055059 | 45 | 44 | 1.7 | 3.5 | 0.00 | 0.00 | 0.00 | 63 | 1009.5 |
| 20260510054549 | 45 | 80 | 4.3 | 6.1 | 0.00 | 0.00 | 0.00 | 63 | 1009.5 |
| 20260510054043 | 45 | 59 | 0.9 | 1.7 | 0.00 | 0.00 | 0.00 | 62 | 1009.2 |
| 20260510053538 | 46 | 27 | 2.6 | 6.1 | 0.00 | 0.00 | 0.00 | 62 | 1009.2 |
| 20260510053035 | 46 | 39 | 0.0 | 2.6 | 0.00 | 0.00 | 0.00 | 62 | 1009.2 |
| 20260510052531 | 46 | 19 | 1.7 | 6.1 | 0.00 | 0.00 | 0.00 | 60 | 1009.2 |
| 20260510052027 | 46 | 37 | 3.5 | 7.0 | 0.00 | 0.00 | 0.00 | 60 | 1009.2 |
| 20260510051523 | 47 | 66 | 3.5 | 6.1 | 0.00 | 0.00 | 0.00 | 58 | 1008.8 |
| 20260510051020 | 47 | 66 | 3.5 | 6.1 | 0.00 | 0.00 | 0.00 | 58 | 1008.8 |
| 20260510050517 | 47 | 42 | 3.5 | 7.0 | 0.00 | 0.00 | 0.00 | 58 | 1008.8 |
| 20260510050014 | 48 | 49 | 6.1 | 7.8 | 0.00 | 0.00 | 0.00 | 59 | 1008.8 |
| 20260510045511 | 48 | 25 | 0.9 | 2.6 | 0.00 | 0.00 | 0.00 | 61 | 1008.1 |
| 20260510045007 | 48 | 54 | 3.5 | 5.2 | 0.00 | 0.00 | 0.00 | 59 | 1008.1 |
| 20260510044504 | 49 | 352 | 0.9 | 2.6 | 0.00 | 0.00 | 0.00 | 59 | 1008.1 |
| 20260510044001 | 49 | 26 | 1.7 | 2.6 | 0.00 | 0.00 | 0.00 | 58 | 1008.1 |
| 20260510043456 | 49 | 43 | 3.5 | 7.0 | 0.00 | 0.00 | 0.00 | 57 | 1007.8 |
| 20260510042955 | 51 | 72 | 1.7 | 5.2 | 0.00 | 0.00 | 0.00 | 56 | 1008.1 |
| 20260510042451 | 52 | 6 | 0.0 | 0.9 | 0.00 | 0.00 | 0.00 | 49 | 1007.8 |
| 20260510041947 | 52 | 7 | 2.6 | 3.5 | 0.00 | 0.00 | 0.00 | 47 | 1007.5 |
| 20260510041444 | 52 | 315 | 0.0 | 0.9 | 0.00 | 0.00 | 0.00 | 48 | 1007.5 |
| 20260510040942 | 52 | 321 | 0.0 | 0.9 | 0.00 | 0.00 | 0.00 | 48 | 1007.5 |
| 20260510040438 | 53 | 351 | 0.9 | 1.7 | 0.00 | 0.00 | 0.00 | 47 | 1007.5 |
| 20260510035934 | 53 | 341 | 0.9 | 0.9 | 0.00 | 0.16 | 0.16 | 47 | 1007.5 |
| 20260510035430 | 53 | 337 | 0.9 | 3.5 | 0.00 | 0.16 | 0.16 | 47 | 1007.5 |
| 20260510034925 | 53 | 6 | 1.7 | 5.2 | 0.00 | 0.16 | 0.16 | 47 | 1007.1 |
| 20260510034424 | 53 | 327 | 2.6 | 5.2 | 0.00 | 0.16 | 0.16 | 46 | 1007.1 |
| 20260510033920 | 54 | 319 | 0.0 | 0.9 | 0.00 | 0.16 | 0.16 | 46 | 1007.1 |
| 20260510033416 | 54 | 349 | 2.6 | 3.5 | 0.00 | 0.16 | 0.16 | 44 | 1007.1 |
| 20260510032912 | 54 | 332 | 0.9 | 2.6 | 0.00 | 0.16 | 0.16 | 45 | 1007.1 |
| 20260510032409 | 54 | 35 | 1.7 | 3.5 | 0.00 | 0.16 | 0.16 | 47 | 1006.8 |
| 20260510031904 | 54 | 321 | 0.9 | 0.9 | 0.00 | 0.16 | 0.16 | 46 | 1007.1 |
| 20260510031140 | 55 | 39 | 0.0 | 3.5 | 0.00 | 0.16 | 0.16 | 46 | 1006.8 |
| 20260510030635 | 55 | 39 | 0.0 | 3.5 | 0.00 | 0.16 | 0.16 | 46 | 1006.8 |
| 20260510030133 | 55 | 338 | 4.3 | 7.0 | 0.00 | 0.16 | 0.16 | 42 | 1006.4 |
| 20260510025630 | 55 | 5 | 5.2 | 7.8 | 0.00 | 0.16 | 0.16 | 43 | 1006.4 |
| 20260510025127 | 55 | 318 | 1.7 | 5.2 | 0.00 | 0.16 | 0.16 | 42 | 1006.8 |
| 20260510024624 | 55 | 39 | 6.1 | 11.3 | 0.00 | 0.16 | 0.16 | 42 | 1006.4 |
| 20260510024120 | 56 | 324 | 2.6 | 9.6 | 0.00 | 0.16 | 0.16 | 43 | 1006.4 |
| 20260510023616 | 56 | 52 | 1.7 | 6.1 | 0.00 | 0.16 | 0.16 | 45 | 1006.4 |
| 20260510023114 | 56 | 37 | 2.6 | 13.0 | 0.00 | 0.16 | 0.16 | 45 | 1005.8 |
| 20260510022614 | 57 | 13 | 1.7 | 7.0 | 0.00 | 0.16 | 0.16 | 45 | 1005.8 |
| 20260510022108 | 57 | 354 | 1.7 | 6.1 | 0.00 | 0.16 | 0.16 | 45 | 1005.8 |
| 20260510021604 | 57 | 307 | 2.6 | 6.1 | 0.00 | 0.16 | 0.16 | 44 | 1005.8 |
| 20260510021102 | 57 | 352 | 0.9 | 3.5 | 0.00 | 0.16 | 0.16 | 45 | 1005.4 |
| 20260510020556 | 58 | 24 | 3.5 | 6.1 | 0.00 | 0.16 | 0.16 | 43 | 1005.4 |
| 20260510020052 | 58 | 293 | 2.6 | 12.2 | 0.00 | 0.16 | 0.16 | 42 | 1005.4 |
| 20260510015548 | 58 | 350 | 5.2 | 11.3 | 0.00 | 0.16 | 0.16 | 43 | 1005.1 |
| 20260510015044 | 58 | 5 | 3.5 | 6.1 | 0.00 | 0.16 | 0.16 | 43 | 1004.7 |
| 20260510014540 | 58 | 352 | 1.7 | 1.7 | 0.00 | 0.16 | 0.16 | 43 | 1004.7 |
| 20260510014038 | 59 | 4 | 1.7 | 6.1 | 0.00 | 0.16 | 0.16 | 43 | 1004.3 |
| 20260510013532 | 60 | 339 | 0.9 | 8.7 | 0.00 | 0.16 | 0.16 | 42 | 1004.3 |
| 20260510013028 | 59 | 305 | 0.9 | 1.7 | 0.00 | 0.16 | 0.16 | 50 | 1004.0 |
| 20260510012527 | 59 | 294 | 0.0 | 0.0 | 0.00 | 0.16 | 0.16 | 43 | 1003.6 |
| 20260510012024 | 60 | 304 | 0.0 | 0.0 | 0.00 | 0.16 | 0.16 | 41 | 1003.6 |
| 20260510011524 | 61 | 287 | 0.0 | 0.9 | 0.00 | 0.16 | 0.16 | 37 | 1003.3 |
| 20260510011020 | 61 | 297 | 0.0 | 2.6 | 0.00 | 0.16 | 0.16 | 37 | 1003.6 |
| 20260510010517 | 60 | 299 | 0.0 | 1.7 | 0.00 | 0.16 | 0.16 | 37 | 1003.6 |
| 20260510010014 | 60 | 285 | 0.0 | 0.9 | 0.00 | 0.16 | 0.16 | 39 | 1003.3 |
| 20260510005509 | 60 | 294 | 0.0 | 0.0 | 0.00 | 0.16 | 0.16 | 38 | 1003.3 |
| 20260510005008 | 60 | 298 | 0.0 | 0.0 | 0.00 | 0.16 | 0.16 | 37 | 1003.0 |
| 20260510004504 | 61 | 299 | 0.0 | 0.0 | 0.00 | 0.16 | 0.16 | 38 | 1003.0 |
| 20260510004003 | 61 | 309 | 0.0 | 0.9 | 0.00 | 0.16 | 0.16 | 38 | 1003.0 |
| 20260510003459 | 62 | 306 | 0.0 | 0.0 | 0.00 | 0.16 | 0.16 | 37 | 1003.0 |
| 20260510002954 | 62 | 269 | 0.0 | 1.7 | 0.00 | 0.16 | 0.16 | 35 | 1003.0 |
| 20260510002450 | 62 | 303 | 0.9 | 3.5 | 0.00 | 0.16 | 0.16 | 33 | 1003.0 |
| 20260510001947 | 62 | 310 | 0.9 | 3.5 | 0.00 | 0.16 | 0.16 | 34 | 1002.6 |
| 20260510001444 | 63 | 305 | 0.9 | 0.9 | 0.00 | 0.16 | 0.16 | 35 | 1002.6 |
| 20260510000942 | 63 | 306 | 0.9 | 1.7 | 0.00 | 0.16 | 0.16 | 34 | 1002.6 |
| 20260510000433 | 63 | 284 | 0.0 | 2.6 | 0.00 | 0.16 | 0.16 | 34 | 1002.6 |
| 20260509235929 | 63 | 305 | 0.9 | 2.6 | 0.00 | 0.16 | 0.16 | 34 | 1002.6 |
| 20260509235426 | 64 | 281 | 0.9 | 3.5 | 0.00 | 0.16 | 0.16 | 32 | 1002.3 |
| 20260509234922 | 64 | 293 | 0.9 | 3.5 | 0.00 | 0.16 | 0.16 | 32 | 1002.3 |
| 20260509234419 | 64 | 357 | 2.6 | 3.5 | 0.00 | 0.16 | 0.16 | 32 | 1002.3 |
| 20260509233918 | 65 | 352 | 0.9 | 6.1 | 0.00 | 0.16 | 0.16 | 34 | 1002.3 |
| 20260509233415 | 66 | 298 | 2.6 | 6.1 | 0.00 | 0.16 | 0.16 | 32 | 1002.3 |
| 20260509232911 | 67 | 340 | 0.9 | 5.2 | 0.00 | 0.16 | 0.16 | 31 | 1001.9 |
| 20260509232409 | 67 | 290 | 0.9 | 7.0 | 0.00 | 0.16 | 0.16 | 31 | 1001.9 |
| 20260509231904 | 67 | 312 | 2.6 | 11.3 | 0.00 | 0.16 | 0.16 | 32 | 1001.6 |
| 20260509231401 | 67 | 304 | 6.1 | 9.6 | 0.00 | 0.16 | 0.16 | 30 | 1001.6 |
| 20260509230859 | 67 | 281 | 7.8 | 13.0 | 0.00 | 0.16 | 0.16 | 30 | 1001.6 |
| 20260509230356 | 67 | 272 | 5.2 | 9.6 | 0.00 | 0.16 | 0.16 | 31 | 1001.6 |
| 20260509225851 | 66 | 223 | 3.5 | 11.3 | 0.00 | 0.16 | 0.16 | 32 | 1001.6 |
| 20260509225348 | 67 | 310 | 1.7 | 7.8 | 0.00 | 0.16 | 0.16 | 33 | 1001.3 |
| 20260509224844 | 66 | 296 | 4.3 | 7.0 | 0.00 | 0.16 | 0.16 | 32 | 1001.3 |
| 20260509224340 | 67 | 244 | 1.7 | 13.9 | 0.00 | 0.16 | 0.16 | 32 | 1001.3 |
| 20260509223837 | 68 | 307 | 3.5 | 11.3 | 0.00 | 0.16 | 0.16 | 31 | 1001.3 |
| 20260509223334 | 68 | 257 | 5.2 | 9.6 | 0.00 | 0.16 | 0.16 | 30 | 1000.9 |
| 20260509222831 | 67 | 312 | 7.0 | 13.0 | 0.00 | 0.16 | 0.16 | 30 | 1000.9 |
| 20260509222326 | 68 | 320 | 7.0 | 14.8 | 0.00 | 0.16 | 0.16 | 30 | 1000.9 |
| 20260509221822 | 68 | 294 | 7.8 | 13.9 | 0.00 | 0.16 | 0.16 | 29 | 1000.6 |
| 20260509221320 | 68 | 266 | 6.1 | 13.0 | 0.00 | 0.16 | 0.16 | 29 | 1000.6 |
| 20260509220819 | 68 | 275 | 7.8 | 13.0 | 0.00 | 0.16 | 0.16 | 31 | 1000.6 |
| 20260509220316 | 68 | 315 | 8.7 | 13.9 | 0.00 | 0.16 | 0.16 | 30 | 1000.3 |
| 20260509215811 | 68 | 236 | 9.6 | 13.0 | 0.00 | 0.16 | 0.16 | 29 | 1000.3 |
| 20260509215308 | 68 | 283 | 3.5 | 12.2 | 0.00 | 0.16 | 0.16 | 29 | 1000.3 |
| 20260509214805 | 68 | 280 | 3.5 | 9.6 | 0.00 | 0.16 | 0.16 | 31 | 999.9 |
| 20260509214302 | 68 | 284 | 8.7 | 13.9 | 0.00 | 0.16 | 0.16 | 30 | 999.9 |
| 20260509213759 | 68 | 303 | 7.0 | 12.2 | 0.00 | 0.16 | 0.16 | 31 | 999.9 |
| 20260509213255 | 68 | 279 | 7.0 | 18.2 | 0.00 | 0.16 | 0.16 | 32 | 999.9 |
| 20260509212752 | 68 | 314 | 12.2 | 18.2 | 0.00 | 0.16 | 0.16 | 30 | 999.9 |
| 20260509212250 | 69 | 216 | 7.8 | 9.6 | 0.00 | 0.16 | 0.16 | 30 | 999.6 |
| 20260509211745 | 68 | 273 | 5.2 | 7.0 | 0.00 | 0.16 | 0.16 | 32 | 999.9 |
| 20260509211242 | 68 | 248 | 6.1 | 15.6 | 0.00 | 0.16 | 0.16 | 32 | 1000.3 |
| 20260509210738 | 68 | 294 | 4.3 | 9.6 | 0.00 | 0.16 | 0.16 | 35 | 999.9 |
| 20260509210237 | 67 | 265 | 7.8 | 9.6 | 0.00 | 0.16 | 0.16 | 37 | 999.9 |
| 20260509205736 | 67 | 278 | 10.4 | 13.9 | 0.00 | 0.16 | 0.16 | 37 | 999.9 |
| 20260509205236 | 67 | 264 | 5.2 | 7.0 | 0.00 | 0.16 | 0.16 | 47 | 1000.3 |
| 20260509204732 | 66 | 288 | 3.5 | 5.2 | 0.00 | 0.16 | 0.16 | 51 | 1000.3 |
| 20260509204228 | 66 | 282 | 2.6 | 5.2 | 0.00 | 0.16 | 0.16 | 56 | 1000.3 |
| 20260509203724 | 66 | 288 | 5.2 | 7.0 | 0.00 | 0.16 | 0.16 | 58 | 1000.3 |
| 20260509203223 | 64 | 296 | 2.6 | 5.2 | 0.00 | 0.16 | 0.16 | 60 | 1000.6 |
| 20260509202718 | 63 | 222 | 1.7 | 3.5 | 0.00 | 0.16 | 0.16 | 61 | 1000.3 |
| 20260509202213 | 63 | 238 | 4.3 | 5.2 | 0.00 | 0.16 | 0.16 | 62 | 1000.3 |
| 20260509201708 | 62 | 240 | 2.6 | 5.2 | 0.05 | 0.16 | 0.16 | 65 | 1000.6 |
| 20260509201206 | 62 | 277 | 3.5 | 6.1 | 0.05 | 0.16 | 0.16 | 66 | 1000.3 |
| 20260509200702 | 60 | 286 | 1.7 | 5.2 | 0.00 | 0.15 | 0.15 | 68 | 1000.6 |
| 20260509200157 | 59 | 283 | 2.6 | 3.5 | 0.00 | 0.15 | 0.15 | 71 | 1000.9 |
| 20260509195654 | 58 | 250 | 1.7 | 5.2 | 0.00 | 0.15 | 0.15 | 74 | 1000.6 |
| 20260509195149 | 56 | 304 | 2.6 | 5.2 | 0.00 | 0.15 | 0.15 | 77 | 1000.9 |
| 20260509194648 | 55 | 288 | 1.7 | 3.5 | 0.00 | 0.15 | 0.15 | 76 | 1000.9 |
| 20260509194146 | 55 | 251 | 1.7 | 5.2 | 0.00 | 0.15 | 0.15 | 78 | 1000.9 |
| 20260509193641 | 54 | 204 | 2.6 | 5.2 | 0.00 | 0.15 | 0.15 | 80 | 1001.3 |
| 20260509193137 | 54 | 214 | 1.7 | 5.2 | 0.07 | 0.15 | 0.15 | 79 | 1001.3 |
| 20260509192634 | 54 | 230 | 0.9 | 2.6 | 0.19 | 0.15 | 0.15 | 77 | 1001.3 |
| 20260509192129 | 53 | 312 | 1.7 | 7.0 | 0.19 | 0.14 | 0.14 | 76 | 1001.3 |
| 20260509191629 | 54 | 289 | 1.7 | 8.7 | 0.24 | 0.12 | 0.12 | 75 | 1001.3 |
| 20260509191126 | 55 | 303 | 0.0 | 2.6 | 0.19 | 0.11 | 0.11 | 73 | 1001.3 |
| 20260509190622 | 56 | 295 | 0.9 | 2.6 | 0.19 | 0.08 | 0.08 | 69 | 1001.6 |
| 20260509190120 | 59 | 280 | 1.7 | 8.7 | 0.00 | 0.05 | 0.05 | 67 | 1001.3 |
| 20260509185617 | 59 | 218 | 3.5 | 6.1 | 0.00 | 0.05 | 0.05 | 72 | 999.9 |
| 20260509185113 | 59 | 247 | 4.3 | 7.8 | 0.00 | 0.05 | 0.05 | 73 | 1000.3 |
| 20260509184612 | 58 | 241 | 3.5 | 3.5 | 0.28 | 0.05 | 0.05 | 76 | 1000.3 |
| 20260509184108 | 60 | 229 | 3.5 | 13.0 | 0.24 | 0.05 | 0.05 | 72 | 1000.3 |
| 20260509183603 | 62 | 185 | 9.6 | 18.2 | 0.00 | 0.00 | 0.00 | 59 | 999.9 |
| 20260509183059 | 62 | 243 | 7.0 | 9.6 | 0.00 | 0.00 | 0.00 | 59 | 1000.3 |
| 20260509182556 | 63 | 195 | 9.6 | 13.9 | 0.00 | 0.00 | 0.00 | 58 | 999.9 |
| 20260509182053 | 63 | 223 | 4.3 | 11.3 | 0.00 | 0.00 | 0.00 | 59 | 999.6 |
| 20260509181551 | 64 | 253 | 7.0 | 14.8 | 0.00 | 0.00 | 0.00 | 58 | 999.9 |
| 20260509181048 | 64 | 212 | 4.3 | 9.6 | 0.00 | 0.00 | 0.00 | 59 | 999.9 |
| 20260509180543 | 64 | 161 | 7.8 | 15.6 | 0.00 | 0.00 | 0.00 | 59 | 999.9 |
| 20260509180042 | 65 | 241 | 10.4 | 14.8 | 0.00 | 0.00 | 0.00 | 57 | 999.9 |
| 20260509175537 | 64 | 200 | 3.5 | 12.2 | 0.00 | 0.00 | 0.00 | 59 | 999.9 |
| 20260509175034 | 64 | 223 | 3.5 | 8.7 | 0.00 | 0.00 | 0.00 | 59 | 999.9 |
| 20260509174530 | 64 | 212 | 5.2 | 7.8 | 0.00 | 0.00 | 0.00 | 59 | 999.9 |
| 20260509174026 | 65 | 229 | 4.3 | 13.9 | 0.00 | 0.00 | 0.00 | 59 | 999.9 |
| 20260509173520 | 64 | 294 | 2.6 | 9.6 | 0.00 | 0.00 | 0.00 | 60 | 1000.3 |
| 20260509173017 | 64 | 244 | 3.5 | 11.3 | 0.00 | 0.00 | 0.00 | 59 | 1000.3 |
| 20260509172514 | 63 | 276 | 2.6 | 9.6 | 0.00 | 0.00 | 0.00 | 61 | 1000.3 |
| 20260509172009 | 63 | 228 | 3.5 | 13.9 | 0.00 | 0.00 | 0.00 | 61 | 1000.3 |
| 20260509171506 | 63 | 201 | 5.2 | 15.6 | 0.00 | 0.00 | 0.00 | 63 | 1000.3 |
| 20260509171002 | 62 | 198 | 6.1 | 9.6 | 0.00 | 0.00 | 0.00 | 64 | 1000.6 |
| 20260509170458 | 62 | 147 | 2.6 | 7.0 | 0.00 | 0.00 | 0.00 | 64 | 1000.6 |
| 20260509165953 | 61 | 204 | 5.2 | 8.7 | 0.00 | 0.00 | 0.00 | 65 | 1000.6 |
| 20260509165453 | 61 | 244 | 2.6 | 7.0 | 0.00 | 0.00 | 0.00 | 66 | 1000.6 |
| 20260509164949 | 60 | 231 | 4.3 | 11.3 | 0.00 | 0.00 | 0.00 | 67 | 1000.6 |
| 20260509164444 | 60 | 176 | 7.0 | 8.7 | 0.00 | 0.00 | 0.00 | 67 | 1000.6 |
| 20260509163940 | 60 | 275 | 7.8 | 15.6 | 0.00 | 0.00 | 0.00 | 64 | 1001.3 |
| 20260509163438 | 61 | 231 | 7.8 | 9.6 | 0.00 | 0.00 | 0.00 | 64 | 1000.9 |
| 20260509162937 | 62 | 222 | 3.5 | 8.7 | 0.00 | 0.00 | 0.00 | 63 | 1000.9 |
| 20260509162436 | 61 | 227 | 4.3 | 11.3 | 0.00 | 0.00 | 0.00 | 65 | 1000.9 |
| 20260509161932 | 61 | 260 | 7.0 | 9.6 | 0.00 | 0.00 | 0.00 | 66 | 1000.9 |
| 20260509161428 | 61 | 220 | 5.2 | 13.0 | 0.00 | 0.00 | 0.00 | 66 | 1001.3 |
| 20260509160924 | 61 | 221 | 3.5 | 7.0 | 0.00 | 0.00 | 0.00 | 66 | 1001.3 |
| 20260509160420 | 60 | 230 | 4.3 | 7.8 | 0.00 | 0.00 | 0.00 | 67 | 1001.3 |
| 20260509155915 | 59 | 233 | 3.5 | 6.1 | 0.00 | 0.00 | 0.00 | 69 | 1001.3 |
| 20260509155412 | 60 | 248 | 5.2 | 11.3 | 0.00 | 0.00 | 0.00 | 70 | 1001.3 |
| 20260509154908 | 60 | 205 | 7.8 | 11.3 | 0.00 | 0.00 | 0.00 | 67 | 1001.3 |
| 20260509154405 | 61 | 176 | 3.5 | 5.2 | 0.00 | 0.00 | 0.00 | 70 | 1001.3 |
| 20260509153901 | 59 | 280 | 4.3 | 7.8 | 0.00 | 0.00 | 0.00 | 74 | 1001.6 |
| 20260509153359 | 57 | 215 | 1.7 | 8.7 | 0.00 | 0.00 | 0.00 | 76 | 1001.9 |
| 20260509152856 | 57 | 286 | 0.0 | 7.8 | 0.00 | 0.00 | 0.00 | 76 | 1001.9 |
| 20260509152352 | 57 | 188 | 1.7 | 6.1 | 0.00 | 0.00 | 0.00 | 76 | 1001.9 |
| 20260509151849 | 57 | 65 | 3.5 | 7.8 | 0.00 | 0.00 | 0.00 | 77 | 1001.9 |
| 20260509151344 | 57 | 196 | 3.5 | 6.1 | 0.00 | 0.00 | 0.00 | 79 | 1002.3 |
| 20260509150843 | 56 | 174 | 1.7 | 7.0 | 0.00 | 0.00 | 0.00 | 81 | 1001.9 |
| 20260509150341 | 54 | 180 | 2.6 | 3.5 | 0.00 | 0.00 | 0.00 | 82 | 1002.3 |
| 20260509145838 | 54 | 240 | 0.0 | 0.0 | 0.00 | 0.00 | 0.00 | 83 | 1003.0 |
| 20260509145332 | 53 | 180 | 1.7 | 1.7 | 0.00 | 0.00 | 0.00 | 82 | 1002.6 |
| 20260509144830 | 53 | 341 | 0.0 | 0.0 | 0.00 | 0.00 | 0.00 | 83 | 1003.3 |
| 20260509144326 | 53 | 312 | 0.0 | 1.7 | 0.00 | 0.00 | 0.00 | 83 | 1003.3 |